"SCET";"TARGET";"ELECTRON_DENSITY";"ERROR_FLAG";"ELECTRON_DENSITY_ERROR";"FREQ_FCE";"MEASURED_VALUE";"MEASURED_ITEM";"FREQ_PLASMA";"FREQ_UPPER_HYBRID";"FREQ_R_EQUALS_ZERO";"FREQ_L_EQUALS_ZERO";"ORBIT_NUMBER";"SATURN_RADIUS";"SATURN_IAU_LONGITUDE";"SATURN_SLS4_S_LONGITUDE";"SATURN_SLS4_N_LONGITUDE";"SATURN_SLS5_S_LONGITUDE";"SATURN_SLS5_N_LONGITUDE";"SATURN_LOCAL_TIME";"SATURN_KRONOGRAPHIC_LATITUDE";"SATURN_MAGNETIC_LATITUDE";"SATURN_L";"SATURN_L_OFFSET";"SATURN_SOLAR_EQUATORIAL_X";"SATURN_SOLAR_EQUATORIAL_Y";"SATURN_SOLAR_EQUATORIAL_Z";"SATURN_ALTITUDE";"ENCELADUS_ENCOUNTER_NUMBER";"ENCELADUS_RADIUS";"ENCELADUS_COROTATIONAL_X";"ENCELADUS_COROTATIONAL_Y";"ENCELADUS_COROTATIONAL_Z";"ENCELADUS_TRUE_ANOMALY";"ENCELADUS_PERIAPSIS_TIME";"JUPITER_RADIUS";"JUPITER_SYSTEMIII_LONGITUDE";"JUPITER_MAGNETIC_LATITUDE";"JUPITER_MAGNETIC_LOCAL_TIME";"JUPITER_L";"IO_PHASE";"EARTH_RADIUS";"EARTH_MAGNETIC_LATITUDE";"EARTH_LOCAL_TIME";"EARTH_L"
"[UTC]";"[0=Saturn, 1=Enceladus, 2=Jupiter, 3=Earth]";"[cm-3]";"[0=automated, 1=manual]";"[normalized density error]";"[Hz]";"[Hz]";"[0=upper hybrid frequency, 1=plasma frequency cutoff]";"[Hz]";"[Hz]";"[Hz]";"[Hz}";"[0, A, B, C, 3, 4, ... , 292, 293]";"[Rs where 1Rs=60268km]";"[degrees]";"[degrees]";"[degrees]";"[degrees]";"[degrees]";"[hours]";"[degrees]";"[degrees where offset=2293km north]";"[Rs where 1Rs=60268km]";"[Rs where 1Rs=60268km and offset=2293km north]";"[Rs where 1Rs=60268km]";"[Rs where 1Rs=60268km]";"[Rs where 1Rs=60268km]";"[km where ellipsoid a,b=60268km and c=54364km]";"[E0, E1, E2, ... , E21, E22]";"[Renc where 1Renc=252.1km]";"[Renc where 1Renc=252.1km]";"[Renc where 1Renc=252.1km]";"[Renc where 1Renc=252.1km]";"[degrees]";"[UTC]";"[Rj where 1Rj=71492km]";"[degrees]";"[degrees using JRM09 model]";"[hours using JRM09 model]";"[Rj where 1Rj=71492km]";"[degrees]";"[Re where 1Re=6378.1366km]";"[degrees]";"[hours]";"[Re where 1Re=6378.1366km]"
2016-10-23T00:00:03.600Z;0;2.9970e+01;0;     0.078;  2477.132;  49221.516; 0;  49159.145;  49221.516;  50413.309;  47936.180;246;   5.907; 217.082;;;  35.459; 291.858;  13.621;   2.657;   2.289;   5.920;   5.900;   5.378;   2.429;   0.274;;;;;;;;;;;;;;;;;;
2016-10-23T00:00:11.600Z;0;3.0060e+01;0;     0.082;  2477.132;  49294.406; 0;  49232.125;  49294.406;  50486.270;  48009.137;246;   5.907; 217.148;;;  35.525; 291.924;  13.621;   2.643;   2.275;   5.920;   5.899;   5.377;   2.430;   0.272;;;;;;;;;;;;;;;;;;
2016-10-23T00:00:19.600Z;0;3.0030e+01;0;     0.080;  2477.132;  49272.305; 0;  49209.996;  49272.305;  50464.148;  47987.016;246;   5.907; 217.214;;;  35.592; 291.989;  13.622;   2.630;   2.261;   5.919;   5.899;   5.377;   2.431;   0.271;;;;;;;;;;;;;;;;;;
2016-10-23T00:00:27.600Z;0;2.9970e+01;0;     0.077;  2477.132;  49220.410; 0;  49158.035;  49220.410;  50412.203;  47935.070;246;   5.906; 217.281;;;  35.658; 292.054;  13.622;   2.616;   2.247;   5.919;   5.899;   5.376;   2.432;   0.269;;;;;;;;;;;;;;;;;;
2016-10-23T00:00:35.600Z;0;3.0080e+01;0;     0.077;  2477.132;  49314.723; 0;  49252.469;  49314.723;  50506.605;  48029.473;246;   5.906; 217.347;;;  35.725; 292.119;  13.623;   2.602;   2.233;   5.918;   5.898;   5.375;   2.432;   0.268;;;;;;;;;;;;;;;;;;
2016-10-23T00:00:43.600Z;0;3.0060e+01;0;     0.076;  2477.132;  49297.168; 0;  49234.891;  49297.168;  50489.035;  48011.902;246;   5.906; 217.413;;;  35.791; 292.184;  13.624;   2.588;   2.219;   5.918;   5.898;   5.375;   2.433;   0.266;;;;;;;;;;;;;;;;;;
2016-10-23T00:00:51.600Z;0;3.0100e+01;0;     0.075;  2477.132;  49331.996; 0;  49269.766;  49331.996;  50523.895;  48046.762;246;   5.905; 217.479;;;  35.858; 292.249;  13.624;   2.574;   2.205;   5.917;   5.898;   5.374;   2.434;   0.265;;;;;;;;;;;;;;;;;;
2016-10-23T00:00:59.600Z;0;3.0110e+01;0;     0.077;  2477.132;  49333.914; 0;  49271.684;  49333.914;  50525.816;  48048.684;246;   5.905; 217.546;;;  35.924; 292.314;  13.625;   2.560;   2.191;   5.917;   5.897;   5.374;   2.434;   0.264;;;;;;;;;;;;;;;;;;
2016-10-23T00:01:07.600Z;0;3.0320e+01;0;     0.082;  2477.832;  49511.766; 0;  49449.727;  49511.766;  50704.160;  48226.328;246;   5.905; 217.612;;;  35.991; 292.380;  13.625;   2.546;   2.177;   5.916;   5.897;   5.373;   2.435;   0.262;;;;;;;;;;;;;;;;;;
2016-10-23T00:01:15.600Z;0;3.0180e+01;0;     0.077;  2477.832;  49392.254; 0;  49330.062;  49392.254;  50584.535;  48106.703;246;   5.904; 217.678;;;  36.057; 292.445;  13.626;   2.532;   2.163;   5.916;   5.897;   5.372;   2.436;   0.261;;;;;;;;;;;;;;;;;;
2016-10-23T00:01:23.600Z;0;3.0190e+01;0;     0.077;  2477.832;  49399.586; 0;  49337.402;  49399.586;  50591.871;  48114.039;246;   5.904; 217.745;;;  36.124; 292.510;  13.626;   2.518;   2.149;   5.916;   5.897;   5.372;   2.437;   0.259;;;;;;;;;;;;;;;;;;
2016-10-23T00:01:31.600Z;0;3.0300e+01;0;     0.079;  2477.832;  49493.641; 0;  49431.578;  49493.641;  50686.016;  48208.184;246;   5.904; 217.811;;;  36.190; 292.575;  13.627;   2.504;   2.135;   5.915;   5.896;   5.371;   2.437;   0.258;;;;;;;;;;;;;;;;;;
2016-10-23T00:01:47.600Z;0;3.0270e+01;0;     0.081;  2477.832;  49466.762; 0;  49404.664;  49466.762;  50659.113;  48181.281;246;   5.903; 217.944;;;  36.323; 292.705;  13.628;   2.476;   2.107;   5.914;   5.896;   5.370;   2.439;   0.255;;;;;;;;;;;;;;;;;;
2016-10-23T00:01:55.600Z;0;3.0480e+01;0;     0.082;  2477.832;  49637.562; 0;  49575.680;  49637.562;  50830.074;  48352.242;246;   5.903; 218.010;;;  36.389; 292.770;  13.629;   2.462;   2.093;   5.914;   5.895;   5.369;   2.439;   0.253;;;;;;;;;;;;;;;;;;
2016-10-23T00:02:03.600Z;0;3.0390e+01;0;     0.077;  2478.672;  49562.371; 0;  49500.352;  49562.371;  50755.199;  48276.527;246;   5.903; 218.076;;;  36.455; 292.835;  13.629;   2.448;   2.079;   5.913;   5.895;   5.369;   2.440;   0.252;;;;;;;;;;;;;;;;;;
2016-10-23T00:02:11.600Z;0;3.0490e+01;0;     0.081;  2478.672;  49646.934; 0;  49585.020;  49646.934;  50839.840;  48361.168;246;   5.902; 218.142;;;  36.521; 292.900;  13.630;   2.434;   2.065;   5.913;   5.895;   5.368;   2.441;   0.250;;;;;;;;;;;;;;;;;;
2016-10-23T00:02:19.600Z;0;3.0460e+01;0;     0.084;  2478.672;  49626.883; 0;  49564.945;  49626.883;  50819.773;  48341.102;246;   5.902; 218.209;;;  36.588; 292.964;  13.631;   2.420;   2.051;   5.912;   5.894;   5.368;   2.442;   0.249;;;;;;;;;;;;;;;;;;
2016-10-23T00:02:27.600Z;0;3.0390e+01;0;     0.080;  2478.672;  49566.332; 0;  49504.316;  49566.332;  50759.164;  48280.492;246;   5.902; 218.275;;;  36.654; 293.029;  13.631;   2.406;   2.037;   5.912;   5.894;   5.367;   2.442;   0.248;;;;;;;;;;;;;;;;;;
2016-10-23T00:02:35.600Z;0;3.0650e+01;0;     0.081;  2478.672;  49780.742; 0;  49718.996;  49780.742;  50973.773;  48495.102;246;   5.901; 218.341;;;  36.720; 293.094;  13.632;   2.392;   2.023;   5.912;   5.894;   5.366;   2.443;   0.246;;;;;;;;;;;;;;;;;;
2016-10-23T00:02:43.598Z;0;3.0730e+01;0;     0.083;  2478.672;  49840.512; 0;  49778.840;  49840.512;  51033.602;  48554.930;246;   5.901; 218.408;;;  36.786; 293.159;  13.632;   2.378;   2.009;   5.911;   5.893;   5.366;   2.444;   0.245;;;;;;;;;;;;;;;;;;
2016-10-23T00:02:51.598Z;0;3.0740e+01;0;     0.087;  2478.672;  49849.402; 0;  49787.742;  49849.402;  51042.500;  48563.828;246;   5.901; 218.474;;;  36.853; 293.224;  13.633;   2.364;   1.995;   5.911;   5.893;   5.365;   2.444;   0.243;;;;;;;;;;;;;;;;;;
2016-10-23T00:02:59.598Z;0;3.0890e+01;0;     0.081;  2478.672;  49968.676; 0;  49907.160;  49968.676;  51161.883;  48683.211;246;   5.900; 218.540;;;  36.919; 293.289;  13.633;   2.350;   1.981;   5.910;   5.893;   5.364;   2.445;   0.242;;;;;;;;;;;;;;;;;;
2016-10-23T00:03:07.598Z;0;3.0650e+01;0;     0.085;  2479.932;  49778.012; 0;  49716.199;  49778.012;  50971.625;  48491.691;246;   5.900; 218.606;;;  36.985; 293.354;  13.634;   2.336;   1.967;   5.910;   5.892;   5.364;   2.446;   0.240;;;;;;;;;;;;;;;;;;
2016-10-23T00:03:15.598Z;0;3.1440e+01;0;     0.092;  2479.932;  50416.012; 0;  50354.980;  50416.012;  51610.211;  49130.281;246;   5.900; 218.673;;;  37.051; 293.418;  13.635;   2.322;   1.953;   5.909;   5.892;   5.363;   2.447;   0.239;;;;;;;;;;;;;;;;;;
2016-10-23T00:03:23.598Z;0;3.1220e+01;0;     0.095;  2479.932;  50234.414; 0;  50173.164;  50234.414;  51428.449;  48948.516;246;   5.899; 218.739;;;  37.117; 293.483;  13.635;   2.309;   1.939;   5.909;   5.892;   5.363;   2.447;   0.237;;;;;;;;;;;;;;;;;;
2016-10-23T00:03:31.598Z;0;3.1740e+01;0;     0.092;  2479.932;  50653.809; 0;  50593.066;  50653.809;  51848.223;  49368.293;246;   5.899; 218.805;;;  37.183; 293.548;  13.636;   2.295;   1.925;   5.908;   5.892;   5.362;   2.448;   0.236;;;;;;;;;;;;;;;;;;
2016-10-23T00:03:39.598Z;0;3.1670e+01;0;     0.094;  2479.932;  50599.902; 0;  50539.094;  50599.902;  51794.270;  49314.336;246;   5.899; 218.872;;;  37.249; 293.613;  13.636;   2.281;   1.911;   5.908;   5.891;   5.361;   2.449;   0.235;;;;;;;;;;;;;;;;;;
2016-10-23T00:03:47.598Z;0;3.1690e+01;0;     0.094;  2479.932;  50610.617; 0;  50549.820;  50610.617;  51804.992;  49325.062;246;   5.898; 218.938;;;  37.315; 293.677;  13.637;   2.267;   1.897;   5.908;   5.891;   5.361;   2.449;   0.233;;;;;;;;;;;;;;;;;;
2016-10-23T00:03:55.598Z;0;3.2000e+01;0;     0.087;  2479.932;  50857.223; 0;  50796.723;  50857.223;  52051.820;  49571.887;246;   5.898; 219.004;;;  37.381; 293.742;  13.638;   2.253;   1.883;   5.907;   5.891;   5.360;   2.450;   0.232;;;;;;;;;;;;;;;;;;
2016-10-23T00:04:03.598Z;0;3.1590e+01;0;     0.090;  2481.192;  50535.715; 0;  50474.766;  50535.715;  51730.605;  49249.414;246;   5.898; 219.070;;;  37.447; 293.807;  13.638;   2.239;   1.869;   5.907;   5.890;   5.360;   2.451;   0.230;;;;;;;;;;;;;;;;;;
2016-10-23T00:04:11.598Z;0;3.2160e+01;0;     0.082;  2481.192;  50986.215; 0;  50925.809;  50986.215;  52181.512;  49700.320;246;   5.897; 219.137;;;  37.513; 293.871;  13.639;   2.225;   1.855;   5.906;   5.890;   5.359;   2.452;   0.229;;;;;;;;;;;;;;;;;;
2016-10-23T00:04:19.598Z;0;3.2240e+01;0;     0.089;  2481.192;  51045.812; 0;  50985.477;  51045.812;  52241.160;  49759.969;246;   5.897; 219.203;;;  37.579; 293.936;  13.639;   2.211;   1.841;   5.906;   5.890;   5.358;   2.452;   0.227;;;;;;;;;;;;;;;;;;
2016-10-23T00:04:27.598Z;0;3.2200e+01;0;     0.084;  2481.192;  51015.484; 0;  50955.109;  51015.484;  52210.809;  49729.613;246;   5.897; 219.269;;;  37.645; 294.001;  13.640;   2.197;   1.827;   5.905;   5.889;   5.358;   2.453;   0.226;;;;;;;;;;;;;;;;;;
2016-10-23T00:04:35.598Z;0;3.2280e+01;0;     0.084;  2481.192;  51079.945; 0;  51019.648;  51079.945;  52275.324;  49794.133;246;   5.896; 219.336;;;  37.711; 294.065;  13.641;   2.183;   1.813;   5.905;   5.889;   5.357;   2.454;   0.224;;;;;;;;;;;;;;;;;;
2016-10-23T00:04:43.598Z;0;3.2500e+01;0;     0.081;  2481.192;  51250.637; 0;  51190.539;  51250.637;  52446.168;  49964.977;246;   5.896; 219.402;;;  37.777; 294.130;  13.641;   2.169;   1.799;   5.905;   5.889;   5.356;   2.454;   0.223;;;;;;;;;;;;;;;;;;
2016-10-23T00:04:51.598Z;0;3.2260e+01;0;     0.080;  2481.192;  51062.773; 0;  51002.457;  51062.773;  52258.137;  49776.945;246;   5.896; 219.468;;;  37.843; 294.194;  13.642;   2.155;   1.785;   5.904;   5.888;   5.356;   2.455;   0.221;;;;;;;;;;;;;;;;;;
2016-10-23T00:04:59.598Z;0;3.2400e+01;0;     0.078;  2481.192;  51172.285; 0;  51112.098;  51172.285;  52367.746;  49886.555;246;   5.895; 219.534;;;  37.909; 294.259;  13.642;   2.141;   1.771;   5.904;   5.888;   5.355;   2.456;   0.220;;;;;;;;;;;;;;;;;;
2016-10-23T00:05:07.598Z;0;3.2760e+01;0;     0.080;  2481.836;  51461.832; 0;  51401.953;  51461.832;  52657.848;  50176.012;246;   5.895; 219.601;;;  37.975; 294.323;  13.643;   2.127;   1.757;   5.903;   5.888;   5.355;   2.456;   0.219;;;;;;;;;;;;;;;;;;
2016-10-23T00:05:15.598Z;0;3.2440e+01;0;     0.084;  2481.836;  51204.852; 0;  51144.672;  51204.852;  52400.641;  49918.805;246;   5.895; 219.667;;;  38.041; 294.388;  13.643;   2.113;   1.743;   5.903;   5.887;   5.354;   2.457;   0.217;;;;;;;;;;;;;;;;;;
2016-10-23T00:05:23.598Z;0;3.2480e+01;0;     0.081;  2481.836;  51240.211; 0;  51180.070;  51240.211;  52436.031;  49954.195;246;   5.894; 219.733;;;  38.106; 294.452;  13.644;   2.099;   1.729;   5.902;   5.887;   5.353;   2.458;   0.216;;;;;;;;;;;;;;;;;;
2016-10-23T00:05:31.598Z;0;3.2730e+01;0;     0.075;  2481.836;  51435.305; 0;  51375.395;  51435.305;  52631.297;  50149.461;246;   5.894; 219.800;;;  38.172; 294.517;  13.645;   2.085;   1.715;   5.902;   5.887;   5.353;   2.459;   0.214;;;;;;;;;;;;;;;;;;
2016-10-23T00:05:39.598Z;0;3.2800e+01;0;     0.079;  2481.836;  51492.617; 0;  51432.773;  51492.617;  52688.660;  50206.824;246;   5.894; 219.866;;;  38.238; 294.581;  13.645;   2.071;   1.701;   5.902;   5.887;   5.352;   2.459;   0.213;;;;;;;;;;;;;;;;;;
2016-10-23T00:05:47.598Z;0;3.2630e+01;0;     0.081;  2481.836;  51355.734; 0;  51295.730;  51355.734;  52551.656;  50069.820;246;   5.894; 219.932;;;  38.304; 294.646;  13.646;   2.057;   1.687;   5.901;   5.886;   5.351;   2.460;   0.211;;;;;;;;;;;;;;;;;;
2016-10-23T00:05:55.598Z;0;3.2620e+01;0;     0.076;  2481.836;  51345.664; 0;  51285.648;  51345.664;  52541.578;  50059.742;246;   5.893; 219.998;;;  38.369; 294.710;  13.646;   2.043;   1.673;   5.901;   5.886;   5.351;   2.461;   0.210;;;;;;;;;;;;;;;;;;
2016-10-23T00:06:03.598Z;0;3.2670e+01;0;     0.075;  2485.252;  51384.754; 0;  51324.617;  51384.754;  52582.285;  50097.031;246;   5.893; 220.065;;;  38.435; 294.775;  13.647;   2.029;   1.659;   5.900;   5.886;   5.350;   2.461;   0.208;;;;;;;;;;;;;;;;;;
2016-10-23T00:06:11.598Z;0;3.2810e+01;0;     0.077;  2485.252;  51498.340; 0;  51438.336;  51498.340;  52695.969;  50210.719;246;   5.893; 220.131;;;  38.501; 294.839;  13.648;   2.015;   1.645;   5.900;   5.885;   5.350;   2.462;   0.207;;;;;;;;;;;;;;;;;;
2016-10-23T00:06:19.598Z;0;3.2770e+01;0;     0.074;  2485.252;  51462.395; 0;  51402.352;  51462.395;  52659.992;  50174.742;246;   5.892; 220.197;;;  38.567; 294.903;  13.648;   2.001;   1.631;   5.899;   5.885;   5.349;   2.463;   0.205;;;;;;;;;;;;;;;;;;
2016-10-23T00:06:27.598Z;0;3.2680e+01;0;     0.075;  2485.252;  51396.617; 0;  51336.496;  51396.617;  52594.160;  50108.906;246;   5.892; 220.263;;;  38.632; 294.968;  13.649;   1.987;   1.617;   5.899;   5.885;   5.348;   2.464;   0.204;;;;;;;;;;;;;;;;;;
2016-10-23T00:06:35.598Z;0;3.2910e+01;0;     0.076;  2485.252;  51574.848; 0;  51514.934;  51574.848;  52772.547;  50287.293;246;   5.892; 220.330;;;  38.698; 295.032;  13.649;   1.973;   1.603;   5.899;   5.884;   5.348;   2.464;   0.203;;;;;;;;;;;;;;;;;;
2016-10-23T00:06:43.598Z;0;3.3040e+01;0;     0.078;  2485.252;  51673.598; 0;  51613.797;  51673.598;  52871.383;  50386.129;246;   5.891; 220.396;;;  38.764; 295.096;  13.650;   1.959;   1.589;   5.898;   5.884;   5.347;   2.465;   0.201;;;;;;;;;;;;;;;;;;
2016-10-23T00:06:51.598Z;0;3.2650e+01;0;     0.077;  2485.252;  51370.066; 0;  51309.914;  51370.066;  52567.586;  50082.332;246;   5.891; 220.462;;;  38.829; 295.161;  13.650;   1.945;   1.575;   5.898;   5.884;   5.346;   2.466;   0.200;;;;;;;;;;;;;;;;;;
2016-10-23T00:06:59.598Z;0;3.2820e+01;0;     0.079;  2485.252;  51504.941; 0;  51444.945;  51504.941;  52702.578;  50217.324;246;   5.891; 220.528;;;  38.895; 295.225;  13.651;   1.931;   1.561;   5.897;   5.883;   5.346;   2.466;   0.198;;;;;;;;;;;;;;;;;;
2016-10-23T00:07:07.598Z;0;3.3040e+01;0;     0.076;  2486.708;  51680.539; 0;  51620.680;  51680.539;  52879.004;  50392.297;246;   5.890; 220.595;;;  38.960; 295.289;  13.652;   1.917;   1.547;   5.897;   5.883;   5.345;   2.467;   0.197;;;;;;;;;;;;;;;;;;
2016-10-23T00:07:15.598Z;0;3.2960e+01;0;     0.077;  2486.708;  51616.695; 0;  51556.762;  51616.695;  52815.105;  50328.398;246;   5.890; 220.661;;;  39.026; 295.353;  13.652;   1.903;   1.533;   5.897;   5.883;   5.345;   2.468;   0.195;;;;;;;;;;;;;;;;;;
2016-10-23T00:07:23.598Z;0;3.2920e+01;0;     0.076;  2486.708;  51581.727; 0;  51521.750;  51581.727;  52780.105;  50293.398;246;   5.890; 220.727;;;  39.092; 295.418;  13.653;   1.889;   1.519;   5.896;   5.883;   5.344;   2.469;   0.194;;;;;;;;;;;;;;;;;;
2016-10-23T00:07:31.598Z;0;3.3150e+01;0;     0.075;  2486.708;  51761.285; 0;  51701.520;  51761.285;  52959.820;  50473.113;246;   5.889; 220.794;;;  39.157; 295.482;  13.653;   1.875;   1.505;   5.896;   5.882;   5.343;   2.469;   0.192;;;;;;;;;;;;;;;;;;
2016-10-23T00:07:39.598Z;0;3.3250e+01;0;     0.078;  2486.708;  51837.812; 0;  51778.133;  51837.812;  53036.414;  50549.707;246;   5.889; 220.860;;;  39.223; 295.546;  13.654;   1.861;   1.491;   5.895;   5.882;   5.343;   2.470;   0.191;;;;;;;;;;;;;;;;;;
2016-10-23T00:07:47.598Z;0;3.3140e+01;0;     0.079;  2486.708;  51757.137; 0;  51697.363;  51757.137;  52955.668;  50468.961;246;   5.889; 220.926;;;  39.288; 295.610;  13.655;   1.846;   1.477;   5.895;   5.882;   5.342;   2.471;   0.190;;;;;;;;;;;;;;;;;;
2016-10-23T00:07:55.596Z;0;3.3400e+01;0;     0.081;  2486.708;  51954.816; 0;  51895.273;  51954.816;  53153.520;  50666.809;246;   5.888; 220.992;;;  39.354; 295.674;  13.655;   1.832;   1.462;   5.894;   5.881;   5.342;   2.471;   0.188;;;;;;;;;;;;;;;;;;
2016-10-23T00:08:03.596Z;0;3.3300e+01;0;     0.076;  2487.380;  51880.453; 0;  51820.789;  51880.453;  53079.402;  50592.023;246;   5.888; 221.059;;;  39.419; 295.738;  13.656;   1.818;   1.448;   5.894;   5.881;   5.341;   2.472;   0.187;;;;;;;;;;;;;;;;;;
2016-10-23T00:08:11.596Z;0;3.2990e+01;0;     0.075;  2487.380;  51638.918; 0;  51578.977;  51638.918;  52837.656;  50350.277;246;   5.888; 221.125;;;  39.484; 295.802;  13.656;   1.804;   1.434;   5.894;   5.881;   5.340;   2.473;   0.185;;;;;;;;;;;;;;;;;;
2016-10-23T00:08:19.596Z;0;3.3130e+01;0;     0.078;  2487.380;  51745.547; 0;  51685.730;  51745.547;  52944.379;  50457.000;246;   5.888; 221.191;;;  39.550; 295.867;  13.657;   1.790;   1.420;   5.893;   5.880;   5.340;   2.474;   0.184;;;;;;;;;;;;;;;;;;
2016-10-23T00:08:27.596Z;0;3.3250e+01;0;     0.079;  2487.380;  51843.051; 0;  51783.344;  51843.051;  53041.969;  50554.590;246;   5.887; 221.257;;;  39.615; 295.931;  13.658;   1.776;   1.406;   5.893;   5.880;   5.339;   2.474;   0.182;;;;;;;;;;;;;;;;;;
2016-10-23T00:08:35.596Z;0;3.3000e+01;0;     0.079;  2487.380;  51649.520; 0;  51589.590;  51649.520;  52848.270;  50360.891;246;   5.887; 221.324;;;  39.681; 295.995;  13.658;   1.762;   1.392;   5.892;   5.880;   5.338;   2.475;   0.181;;;;;;;;;;;;;;;;;;
2016-10-23T00:08:43.596Z;0;3.3090e+01;0;     0.077;  2487.380;  51718.234; 0;  51658.383;  51718.234;  52917.043;  50429.664;246;   5.887; 221.390;;;  39.746; 296.059;  13.659;   1.748;   1.378;   5.892;   5.879;   5.338;   2.476;   0.179;;;;;;;;;;;;;;;;;;
2016-10-23T00:08:51.596Z;0;3.3410e+01;0;     0.081;  2487.380;  51966.320; 0;  51906.758;  51966.320;  53165.344;  50677.965;246;   5.886; 221.456;;;  39.811; 296.123;  13.659;   1.734;   1.364;   5.892;   5.879;   5.337;   2.476;   0.178;;;;;;;;;;;;;;;;;;
2016-10-23T00:08:59.596Z;0;3.3250e+01;0;     0.081;  2487.380;  51843.047; 0;  51783.340;  51843.047;  53041.965;  50554.586;246;   5.886; 221.522;;;  39.877; 296.187;  13.660;   1.720;   1.350;   5.891;   5.879;   5.336;   2.477;   0.176;;;;;;;;;;;;;;;;;;
2016-10-23T00:09:07.596Z;0;3.3170e+01;0;     0.078;  2490.628;  51777.242; 0;  51717.305;  51777.242;  52977.609;  50486.980;246;   5.886; 221.589;;;  39.942; 296.251;  13.660;   1.706;   1.336;   5.891;   5.879;   5.336;   2.478;   0.175;;;;;;;;;;;;;;;;;;
2016-10-23T00:09:15.596Z;0;3.3400e+01;0;     0.078;  2490.628;  51960.676; 0;  51900.949;  51960.676;  53161.203;  50670.574;246;   5.885; 221.655;;;  40.007; 296.315;  13.661;   1.692;   1.322;   5.890;   5.878;   5.335;   2.478;   0.174;;;;;;;;;;;;;;;;;;
2016-10-23T00:09:23.596Z;0;3.3390e+01;0;     0.074;  2490.628;  51953.562; 0;  51893.828;  51953.562;  53154.082;  50663.453;246;   5.885; 221.721;;;  40.073; 296.379;  13.662;   1.678;   1.308;   5.890;   5.878;   5.335;   2.479;   0.172;;;;;;;;;;;;;;;;;;
2016-10-23T00:09:31.596Z;0;3.3230e+01;0;     0.077;  2490.628;  51824.859; 0;  51764.977;  51824.859;  53025.270;  50534.641;246;   5.885; 221.787;;;  40.138; 296.443;  13.662;   1.664;   1.294;   5.890;   5.878;   5.334;   2.480;   0.171;;;;;;;;;;;;;;;;;;
2016-10-23T00:09:39.596Z;0;3.3390e+01;0;     0.081;  2490.628;  51948.742; 0;  51889.004;  51948.742;  53149.258;  50658.629;246;   5.884; 221.854;;;  40.203; 296.506;  13.663;   1.650;   1.280;   5.889;   5.877;   5.333;   2.481;   0.169;;;;;;;;;;;;;;;;;;
2016-10-23T00:09:47.596Z;0;3.3660e+01;0;     0.079;  2490.628;  52161.617; 0;  52102.121;  52161.617;  53362.316;  50871.688;246;   5.884; 221.920;;;  40.268; 296.570;  13.663;   1.636;   1.266;   5.889;   5.877;   5.333;   2.481;   0.168;;;;;;;;;;;;;;;;;;
2016-10-23T00:09:55.596Z;0;3.3450e+01;0;     0.079;  2490.628;  51997.711; 0;  51938.027;  51997.711;  53198.270;  50707.641;246;   5.884; 221.986;;;  40.333; 296.634;  13.664;   1.622;   1.252;   5.888;   5.877;   5.332;   2.482;   0.166;;;;;;;;;;;;;;;;;;
2016-10-23T00:10:03.596Z;0;3.3690e+01;0;     0.081;  2493.736;  52181.090; 0;  52121.469;  52181.090;  53383.246;  50889.512;246;   5.883; 222.052;;;  40.399; 296.699;  13.665;   1.608;   1.237;   5.888;   5.876;   5.331;   2.483;   0.165;;;;;;;;;;;;;;;;;;
2016-10-23T00:10:11.596Z;0;3.3810e+01;0;     0.081;  2493.736;  52275.043; 0;  52215.527;  52275.043;  53477.281;  50983.547;246;   5.883; 222.119;;;  40.465; 296.764;  13.665;   1.594;   1.223;   5.888;   5.876;   5.331;   2.483;   0.163;;;;;;;;;;;;;;;;;;
2016-10-23T00:10:19.596Z;0;3.3720e+01;0;     0.082;  2493.736;  52204.594; 0;  52145.000;  52204.594;  53406.773;  50913.035;246;   5.883; 222.185;;;  40.531; 296.829;  13.666;   1.580;   1.209;   5.887;   5.876;   5.330;   2.484;   0.162;;;;;;;;;;;;;;;;;;
2016-10-23T00:10:27.596Z;0;3.3700e+01;0;     0.080;  2493.736;  52189.441; 0;  52129.828;  52189.441;  53391.605;  50897.871;246;   5.882; 222.251;;;  40.596; 296.894;  13.666;   1.566;   1.195;   5.887;   5.876;   5.330;   2.485;   0.161;;;;;;;;;;;;;;;;;;
2016-10-23T00:10:35.596Z;0;3.3850e+01;0;     0.083;  2493.736;  52308.348; 0;  52248.871;  52308.348;  53510.613;  51016.879;246;   5.882; 222.317;;;  40.662; 296.959;  13.667;   1.552;   1.181;   5.886;   5.875;   5.329;   2.486;   0.159;;;;;;;;;;;;;;;;;;
2016-10-23T00:10:43.596Z;0;3.4480e+01;0;     0.099;  2493.736;  52788.199; 0;  52729.266;  52788.199;  53990.871;  51497.137;246;   5.882; 222.384;;;  40.728; 297.025;  13.668;   1.538;   1.167;   5.886;   5.875;   5.328;   2.486;   0.158;;;;;;;;;;;;;;;;;;
2016-10-23T00:10:51.596Z;0;3.4840e+01;0;     0.089;  2493.736;  53063.527; 0;  53004.898;  53063.527;  54266.430;  51772.695;246;   5.882; 222.450;;;  40.794; 297.090;  13.668;   1.523;   1.153;   5.886;   5.875;   5.328;   2.487;   0.156;;;;;;;;;;;;;;;;;;
2016-10-23T00:10:59.596Z;0;3.4790e+01;0;     0.086;  2493.736;  53021.992; 0;  52963.316;  53021.992;  54224.859;  51731.125;246;   5.881; 222.516;;;  40.860; 297.155;  13.669;   1.509;   1.139;   5.885;   5.874;   5.327;   2.488;   0.155;;;;;;;;;;;;;;;;;;
2016-10-23T00:11:07.596Z;0;3.5070e+01;0;     0.085;  2494.856;  53234.938; 0;  53176.445;  53234.938;  54438.500;  51943.645;246;   5.881; 222.582;;;  40.926; 297.221;  13.669;   1.495;   1.125;   5.885;   5.874;   5.326;   2.488;   0.153;;;;;;;;;;;;;;;;;;
2016-10-23T00:11:15.596Z;0;3.5030e+01;0;     0.085;  2494.856;  53206.707; 0;  53148.184;  53206.707;  54410.250;  51915.391;246;   5.881; 222.649;;;  40.991; 297.286;  13.670;   1.481;   1.111;   5.885;   5.874;   5.326;   2.489;   0.152;;;;;;;;;;;;;;;;;;
2016-10-23T00:11:23.596Z;0;3.5030e+01;0;     0.088;  2494.856;  53203.957; 0;  53145.430;  53203.957;  54407.496;  51912.641;246;   5.880; 222.715;;;  41.057; 297.351;  13.670;   1.467;   1.097;   5.884;   5.873;   5.325;   2.490;   0.150;;;;;;;;;;;;;;;;;;